Theta_e
308 310 318 321 321 321 321 324 327 327 336 341 340 340 337 339 341 340 339 340 347 350 348 344 344 345 341 336 334 332 330 329 332 329 332 338 340 341 343 343 341 342 342
306 309 315 315 316 320 321 319 320 329 328 342 341 341 341 341 339 340 340 340 342 344 349 347 344 342 338 337 335 333 331 331 334 332 333 330 329 334 343 341 342 342 342
305 307 313 314 316 316 317 318 321 322 325 329 335 340 342 345 342 339 338 339 340 340 342 344 344 341 340 337 336 337 335 331 332 336 333 325 321 331 336 340 339 339 340
306 306 310 311 314 316 317 316 319 320 324 323 326 325 331 332 336 335 340 339 339 337 338 342 343 341 341 339 337 337 337 333 329 336 342 340 336 326 323 336 339 339 340
303 305 308 311 311 312 314 319 319 320 322 323 325 325 327 329 329 331 332 343 343 340 339 339 341 342 340 340 339 338 339 337 335 337 332 327 324 324 324 324 330 335 338
304 305 307 308 309 309 310 313 317 318 322 322 322 323 322 325 325 325 327 331 333 339 342 341 342 340 341 341 337 338 338 337 338 341 332 324 329 331 333 332 331 328 331
304 306 306 306 307 307 308 312 312 313 318 319 321 325 326 327 325 325 325 325 326 329 340 343 341 340 342 341 341 338 341 341 341 341 336 333 334 337 338 335 329 328 329
302 304 306 306 307 308 309 311 314 315 317 319 320 322 323 326 328 328 326 325 326 326 329 334 343 343 343 342 342 339 337 339 342 342 338 335 338 343 340 334 330 322 323
300 303 304 305 308 307 310 310 314 314 316 317 318 319 324 323 322 323 324 331 329 330 330 332 335 340 343 341 340 338 337 341 344 344 344 342 344 343 340 336 332 324 318
301 302 303 304 306 308 309 311 312 311 312 312 315 322 322 325 324 325 325 326 328 331 331 331 330 333 336 348 350 348 348 346 349 350 349 348 347 340 340 337 333 330 325
301 301 302 303 305 306 309 310 311 312 313 314 313 314 315 320 324 326 327 328 329 330 332 333 334 333 333 337 349 350 350 348 349 350 348 346 345 340 336 337 332 329 328
300 301 302 304 304 305 306 309 312 311 311 314 316 315 315 316 318 319 321 323 324 329 331 334 333 334 335 334 336 344 349 347 347 347 346 344 344 340 339 334 331 330 330
304 304 305 305 304 305 307 307 309 308 308 311 311 312 312 314 318 318 320 323 324 324 326 329 331 332 335 335 336 340 341 343 348 347 344 343 340 340 341 335 331 331 331
302 302 304 307 305 305 306 307 306 308 309 309 308 308 310 313 312 314 315 318 321 322 322 324 327 329 330 334 336 337 343 343 346 346 344 343 343 342 339 335 333 331 328
303 302 304 304 307 306 305 307 306 306 307 308 307 308 311 312 312 313 313 314 316 317 320 321 323 327 329 331 334 336 337 344 344 342 345 343 341 335 336 337 332 329 326
303 306 309 309 308 310 308 308 309 309 309 308 308 309 309 310 310 310 311 312 313 315 319 322 322 323 326 318 316 320 337 343 343 341 343 340 331 329 324 325 326 327 326
304 305 306 307 309 308 308 305 307 307 308 308 309 310 309 309 309 309 308 309 310 311 313 316 319 322 326 314 312 314 324 339 342 339 337 334 337 330 330 321 320 321 320
303 303 305 304 304 306 307 307 307 306 306 306 307 307 307 307 306 306 307 307 308 310 312 314 318 324 327 313 310 311 322 337 339 339 338 333 329 328 328 327 325 324 323
305 305 305 305 305 305 305 306 305 305 305 305 305 306 307 306 306 305 305 305 306 308 311 314 318 323 327 313 310 310 323 334 338 338 337 335 331 313 317 328 325 322 317
302 302 303 303 303 304 305 304 304 303 303 304 305 306 306 306 305 305 304 306 308 310 312 315 317 320 324 314 307 308 326 334 335 333 330 317 328 305 308 327 325 320 316
299 300 300 300 302 304 303 303 302 301 304 306 306 306 305 305 305 305 305 305 305 309 313 317 322 323 323 326 309 303 326 335 331 328 323 320 304 304 305 313 325 321 320
299 299 299 299 301 302 302 301 300 302 304 305 304 305 306 307 308 306 306 306 307 308 313 316 319 322 324 316 307 303 308 321 330 327 322 310 301 301 302 311 299 300 313
297 299 299 299 300 301 301 300 301 303 304 304 304 305 306 306 307 308 309 309 309 312 314 315 316 318 325 318 304 303 308 309 329 326 312 298 297 299 302 297 297 304 319
296 297 298 298 299 302 303 304 305 304 304 304 305 305 305 307 308 310 310 310 311 312 314 316 317 320 323 316 316 317 315 306 309 306 307 306 306 306 305 306 307 319 318
296 297 298 298 298 300 301 302 303 304 304 305 306 307 308 309 308 310 312 313 314 314 315 318 320 323 320 320 315 319 323 319 314 313 316 317 316 315 315 316 317 320 317
295 295 296 296 298 300 301 301 303 304 304 304 305 306 308 310 310 310 311 298 298 299 302 304 315 326 312 304 305 303 302 301 304 317 317 317 317 317 318 317 317 316 314
Wind_Speed
6 5 10 10 9 9 8 5 3 3 3 2 3 3 4 3 3 5 7 8 6 7 10 6 5 5 6 6 6 4 4 3 3 1 3 7 7 7 8 8 6 6 6
6 7 10 7 8 8 8 6 3 2 2 3 3 2 5 2 3 3 3 6 8 7 7 7 7 7 4 6 6 5 3 3 4 4 1 5 3 2 9 6 5 7 5
11 10 16 12 10 9 9 6 4 1 2 3 3 3 3 3 3 4 3 5 7 8 7 7 7 7 7 9 9 9 9 8 0 6 4 1 4 3 8 9 5 6 4
9 9 14 9 10 8 8 8 7 4 3 5 4 5 5 6 5 3 3 4 7 9 8 10 10 10 8 11 12 11 9 6 5 3 4 5 5 5 7 5 5 6 6
10 10 14 11 9 9 8 8 8 6 5 5 5 5 3 3 3 3 4 6 8 7 10 7 7 10 10 13 12 4 9 6 5 5 4 6 1 5 8 13 6 4 5
11 12 11 11 9 8 8 8 7 4 6 6 6 7 6 5 4 2 3 3 5 7 11 12 11 10 10 12 9 6 8 9 9 9 8 4 4 2 4 10 8 5 5
12 11 11 10 9 9 9 7 7 6 6 6 6 8 8 5 4 3 2 4 3 2 3 9 10 9 12 12 12 11 11 9 10 14 9 4 6 4 8 8 5 5 4
10 12 14 12 9 9 9 9 8 8 8 8 7 6 6 3 4 3 1 5 3 4 4 4 6 8 11 16 13 9 9 10 11 14 11 9 9 7 10 5 5 2 3
8 9 9 9 11 8 9 10 9 8 8 8 7 7 6 5 5 5 4 4 4 3 4 5 6 7 12 16 15 11 10 12 13 14 13 12 9 8 7 4 4 6 3
9 8 7 6 6 9 9 10 10 10 9 7 6 6 7 7 6 5 7 7 6 5 5 7 6 7 9 11 13 11 11 12 9 9 12 11 9 6 4 4 4 4 5
9 7 5 6 7 6 7 9 9 9 8 8 8 6 6 5 5 5 6 5 4 6 6 7 8 7 7 9 11 12 10 11 12 11 10 11 8 4 4 4 4 4 3
8 8 8 9 8 7 7 9 8 8 7 8 8 8 6 3 3 4 4 5 6 6 5 6 6 9 10 10 11 13 11 12 11 12 10 11 6 8 6 5 6 5 4
11 8 7 7 8 8 7 7 7 6 5 3 4 4 4 4 3 3 4 5 5 7 7 10 9 10 10 13 13 13 14 11 11 12 12 12 8 8 6 5 6 4 3
5 3 7 13 5 7 8 6 7 8 7 6 5 4 4 4 3 4 4 5 6 9 10 9 11 14 13 13 14 14 13 13 12 10 11 11 11 10 8 7 7 5 4
10 5 2 10 13 6 7 8 8 8 7 7 6 5 4 4 5 5 6 7 6 10 13 14 13 12 10 10 14 14 16 12 11 9 12 10 9 12 11 8 7 6 5
4 9 8 9 15 10 2 3 3 3 4 2 3 4 4 4 5 6 6 7 8 10 12 13 13 15 12 14 17 16 13 11 12 12 11 8 11 11 14 11 8 8 7
11 8 6 7 10 9 7 3 4 3 3 4 5 5 5 6 6 6 7 8 10 9 13 14 14 16 16 14 17 20 10 13 12 10 8 6 5 10 8 7 6 6 8
4 8 10 4 5 5 6 7 4 3 4 5 6 5 5 6 6 8 9 9 10 12 12 14 15 14 14 14 17 20 9 13 12 10 12 10 9 9 12 8 7 5 5
8 7 9 11 11 9 8 7 7 7 7 8 7 7 9 12 13 15 16 15 15 17 15 14 15 14 14 14 17 11 9 13 12 10 13 13 12 13 14 9 7 6 2
8 10 12 11 11 11 10 8 9 8 9 9 11 12 10 11 10 10 10 10 9 14 13 15 14 14 11 15 16 11 8 12 8 5 8 13 13 15 13 8 7 7 5
7 9 14 16 16 11 10 12 8 8 7 10 11 8 8 13 15 16 15 14 14 13 13 14 10 8 10 14 16 16 11 9 7 7 4 4 16 14 11 9 6 6 8
16 17 18 18 18 14 11 12 11 8 11 13 10 12 14 13 12 14 13 14 12 12 15 10 9 8 12 17 14 18 18 14 10 9 5 6 15 15 13 9 9 11 9
17 17 15 15 14 15 15 16 14 12 11 9 12 14 14 14 14 14 12 10 9 9 9 8 9 10 10 5 8 10 10 8 11 9 11 16 14 16 12 9 9 8 5
21 17 18 17 16 14 12 11 10 10 11 11 13 13 13 13 12 10 9 8 9 8 8 10 10 9 7 5 6 8 11 12 12 17 12 10 12 12 8 5 4 4 4
16 16 13 14 17 15 16 15 13 12 13 12 13 13 10 12 11 11 9 9 11 10 10 10 9 9 8 8 11 14 13 11 13 14 8 8 7 7 6 4 4 5 4
16 17 15 16 18 15 15 16 15 14 13 11 11 11 9 9 8 8 7 7 9 15 18 15 12 8 12 16 13 21 19 22 19 9 10 9 9 8 6 5 5 4 5
Wind_Direction
161 126 144 130 117 114 114 106 93 319 324 278 173 144 162 246 264 215 156 153 181 185 201 197 189 197 208 191 188 184 210 284 175 323 302 274 239 250 253 249 229 228 219
170 135 134 133 127 139 133 131 97 18 304 302 263 222 147 173 265 291 195 197 155 164 192 193 210 200 230 216 198 178 177 234 195 185 133 291 303 297 277 253 235 231 219
182 161 155 160 150 146 149 155 165 205 286 309 333 325 98 128 169 223 219 234 204 154 186 198 198 213 215 233 210 205 181 225 190 232 166 240 234 21 355 300 260 239 227
186 180 168 143 144 162 155 148 148 170 258 285 250 219 235 178 179 193 202 214 205 207 188 203 204 213 219 237 230 220 197 167 159 215 189 211 193 153 269 253 281 246 237
175 150 125 139 144 137 141 154 160 173 222 241 256 263 240 210 183 161 272 198 201 193 198 198 229 231 224 233 234 228 209 187 147 198 209 232 208 144 193 275 263 294 253
135 135 135 134 136 138 143 135 153 194 206 214 240 245 268 267 189 187 111 284 279 213 183 191 198 213 230 239 240 212 196 195 199 216 222 204 199 184 217 233 248 222 266
131 130 133 140 163 162 163 169 175 203 216 224 236 233 234 234 246 282 194 204 270 302 219 203 208 204 237 249 249 235 217 202 205 216 223 203 225 183 235 229 237 224 256
134 139 158 171 165 165 179 181 175 199 206 212 231 238 239 239 234 223 235 268 204 237 266 246 224 237 225 239 234 216 221 227 227 228 218 213 225 210 234 208 189 291 276
128 134 125 142 168 171 183 167 170 191 198 219 224 227 221 223 232 226 218 243 270 241 241 234 242 233 231 236 230 227 231 230 223 227 230 221 219 204 217 191 188 161 222
115 126 132 143 153 157 164 168 178 192 213 224 206 208 226 229 234 227 232 237 242 244 263 272 248 239 264 257 231 227 223 225 221 227 229 228 231 191 221 191 218 176 180
148 142 162 201 202 197 181 186 183 185 202 214 225 219 220 218 221 221 235 240 247 246 243 245 259 259 253 262 256 238 226 221 227 228 213 214 207 203 212 183 193 195 168
158 177 200 187 178 185 174 174 194 194 195 202 211 215 225 233 262 260 266 269 272 277 266 271 266 267 260 256 251 249 239 232 229 226 207 213 192 205 196 187 195 195 183
2 0 325 195 199 181 179 174 165 175 192 167 139 190 210 191 198 262 303 310 294 286 286 276 267 268 273 260 256 250 242 235 233 223 205 211 193 205 198 181 199 198 186
272 270 12 341 205 179 178 188 175 166 173 180 186 210 221 206 233 270 271 268 271 282 276 268 275 273 265 275 261 255 243 237 236 215 204 204 196 201 191 184 184 186 183
265 280 336 16 313 304 235 200 203 196 188 183 170 178 190 206 215 237 262 268 266 271 269 271 270 266 267 273 275 253 247 229 223 212 211 207 193 196 191 173 181 172 160
333 41 23 34 345 325 250 33 46 63 92 165 205 219 226 231 236 248 244 247 258 263 264 263 268 274 269 263 274 269 244 230 222 223 213 211 196 189 165 162 173 180 168
345 358 359 170 206 250 293 278 226 243 239 232 237 232 233 243 251 246 244 255 258 256 259 261 261 261 261 255 265 268 257 240 217 205 194 174 165 149 133 108 111 154 166
294 308 301 265 229 237 259 271 208 209 244 246 239 232 250 261 256 255 259 262 256 256 258 261 262 253 253 248 261 267 258 252 213 199 176 162 158 155 144 153 143 140 134
277 255 280 285 279 261 251 245 227 220 224 228 230 235 243 249 249 250 255 258 265 264 257 258 255 249 250 248 257 260 251 247 213 187 169 155 154 162 143 151 160 139 119
283 297 300 295 287 285 268 248 244 220 231 244 250 252 251 257 254 252 258 263 267 267 256 256 254 241 247 256 258 225 240 233 190 144 152 147 148 149 151 157 151 150 173
299 318 304 296 292 281 257 259 244 235 232 240 247 247 249 255 256 255 257 254 250 269 264 248 247 239 248 262 250 214 219 211 151 137 149 126 135 134 124 122 140 170 153
289 288 285 275 268 261 256 263 250 241 249 247 241 251 252 251 253 249 239 240 237 247 258 254 260 259 263 252 229 211 217 151 148 146 127 123 124 122 119 100 141 135 134
290 285 274 275 277 268 257 252 256 254 237 226 244 252 253 251 248 245 243 242 240 242 254 249 255 261 267 223 193 214 185 158 125 134 132 125 124 111 88 120 143 137 126
288 286 277 272 274 268 265 266 263 269 263 250 253 253 250 247 242 241 236 231 235 237 241 243 246 253 232 180 165 157 108 86 91 115 123 118 94 87 108 112 137 129 137
281 275 269 278 272 269 268 264 265 264 260 256 254 251 251 251 240 235 233 228 233 229 234 235 234 241 196 180 176 144 140 152 138 119 110 113 108 122 134 129 146 129 128
283 279 273 268 271 270 268 269 262 261 260 255 258 249 248 249 233 233 232 198 239 245 235 233 242 205 156 151 163 114 128 126 131 121 135 136 142 144 148 158 142 125 133